| time (UTC) | temp F | wind direction | speed MPH | gust MPH | rain 1hr in | rain 24hr in | rain mn in | humidity % | barometer mb |
| 20260507011450 | 0 | 315 | 1.0 | 3.0 | 0.00 | 0.00 | 0.00 | 1005.0 | |
| 20260507010648 | 0 | 315 | 0.0 | 2.0 | 0.00 | 0.00 | 0.00 | 1005.0 | |
| 20260507005846 | 0 | 90 | 0.0 | 3.0 | 0.00 | 0.00 | 0.00 | 1005.0 | |
| 20260507005041 | 0 | 90 | 0.0 | 2.0 | 0.00 | 0.00 | 0.00 | 1004.9 | |
| 20260507004239 | 0 | 225 | 1.0 | 2.0 | 0.00 | 0.00 | 0.00 | 1004.9 | |
| 20260507003434 | 0 | 45 | 1.0 | 4.0 | 0.00 | 0.00 | 0.00 | 1004.5 | |
| 20260507002631 | 0 | 90 | 1.0 | 6.0 | 0.00 | 0.00 | 0.00 | 1004.5 | |
| 20260507001826 | 0 | 45 | 0.0 | 6.0 | 0.00 | 0.00 | 0.00 | 1004.4 | |
| 20260507001020 | 0 | 45 | 3.0 | 4.0 | 0.00 | 0.00 | 0.00 | 1004.5 | |
| 20260507000213 | 0 | 315 | 2.0 | 5.0 | 0.00 | 0.00 | 0.00 | 1004.4 | |
| 20260506235411 | 0 | 180 | 3.0 | 8.0 | 0.00 | 0.00 | 0.00 | 1004.4 | |
| 20260506234606 | 0 | 90 | 1.0 | 4.0 | 0.00 | 0.00 | 0.00 | 1004.2 | |
| 20260506233800 | 0 | 45 | 2.0 | 7.0 | 0.00 | 0.00 | 0.00 | 1004.1 | |
| 20260506232958 | 0 | 45 | 2.0 | 8.0 | 0.00 | 0.00 | 0.00 | 1003.9 | |
| 20260506232155 | 0 | 45 | 1.0 | 5.0 | 0.00 | 0.00 | 0.00 | 1004.1 | |
| 20260506231352 | 0 | 45 | 0.0 | 1.0 | 0.00 | 0.00 | 0.00 | 1003.9 | |
| 20260506230551 | 0 | 45 | 0.0 | 0.0 | 0.00 | 0.00 | 0.00 | 1003.6 | |
| 20260506225748 | 0 | 90 | 0.0 | 0.0 | 0.00 | 0.00 | 0.00 | 1003.3 | |
| 20260506224945 | 0 | 270 | 0.0 | 3.0 | 0.00 | 0.00 | 0.00 | 1003.1 | |
| 20260506224137 | 0 | 90 | 0.0 | 0.0 | 0.00 | 0.00 | 0.00 | 1002.8 | |
| 20260506223334 | 0 | 270 | 0.0 | 3.0 | 0.00 | 0.00 | 0.00 | 1002.8 | |
| 20260506222531 | 0 | 315 | 1.0 | 3.0 | 0.00 | 0.00 | 0.00 | 1002.8 | |
| 20260506221725 | 0 | 315 | 2.0 | 6.0 | 0.00 | 0.00 | 0.00 | 1002.6 | |
| 20260506220913 | 0 | 315 | 2.0 | 4.0 | 0.00 | 0.00 | 0.00 | 1002.6 | |
| 20260506220101 | 0 | 315 | 1.0 | 8.0 | 0.00 | 0.00 | 0.00 | 1002.4 | |
| 20260506215255 | 0 | 315 | 2.0 | 5.0 | 0.00 | 0.00 | 0.00 | 1002.5 | |
| 20260506214453 | 0 | 270 | 2.0 | 6.0 | 0.00 | 0.00 | 0.00 | 1002.5 | |
| 20260506213648 | 0 | 270 | 0.0 | 3.0 | 0.00 | 0.00 | 0.00 | 1002.1 | |
| 20260506212846 | 0 | 270 | 3.0 | 5.0 | 0.00 | 0.00 | 0.00 | 1002.0 | |
| 20260506212041 | 0 | 315 | 1.0 | 5.0 | 0.00 | 0.00 | 0.00 | 1002.0 | |
| 20260506211238 | 0 | 270 | 2.0 | 4.0 | 0.00 | 0.00 | 0.00 | 1002.0 | |
| 20260506210435 | 0 | 315 | 1.0 | 5.0 | 0.00 | 0.00 | 0.00 | 1001.9 | |
| 20260506205631 | 0 | 315 | 1.0 | 8.0 | 0.00 | 0.00 | 0.00 | 1001.8 | |
| 20260506204826 | 0 | 270 | 1.0 | 5.0 | 0.00 | 0.00 | 0.00 | 1001.8 | |
| 20260506204025 | 0 | 225 | 1.0 | 4.0 | 0.00 | 0.00 | 0.00 | 1001.8 | |
| 20260506203219 | 0 | 270 | 1.0 | 7.0 | 0.00 | 0.00 | 0.00 | 1001.7 | |
| 20260506202413 | 0 | 315 | 2.0 | 7.0 | 0.00 | 0.00 | 0.00 | 1001.6 | |
| 20260506201609 | 0 | 315 | 1.0 | 6.0 | 0.00 | 0.00 | 0.00 | 1001.6 | |
| 20260506200803 | 0 | 270 | 1.0 | 5.0 | 0.00 | 0.00 | 0.00 | 1001.6 | |
| 20260506200001 | 0 | 270 | 3.0 | 7.0 | 0.00 | 0.00 | 0.00 | 1001.5 | |
| 20260506195155 | 0 | 315 | 2.0 | 9.0 | 0.00 | 0.00 | 0.00 | 1001.6 | |
| 20260506194351 | 0 | 45 | 1.0 | 6.0 | 0.00 | 0.00 | 0.00 | 1001.5 | |
| 20260506193545 | 0 | 315 | 2.0 | 10.0 | 0.00 | 0.00 | 0.00 | 1001.4 | |
| 20260506192741 | 0 | 270 | 4.0 | 7.0 | 0.00 | 0.00 | 0.00 | 1001.4 | |
| 20260506191936 | 0 | 315 | 4.0 | 5.0 | 0.00 | 0.00 | 0.00 | 1001.3 | |
| 20260506191133 | 0 | 315 | 2.0 | 4.0 | 0.00 | 0.00 | 0.00 | 1001.2 | |
| 20260506190333 | 0 | 315 | 1.0 | 7.0 | 0.00 | 0.00 | 0.00 | 1001.2 | |
| 20260506185530 | 0 | 270 | 3.0 | 5.0 | 0.00 | 0.00 | 0.00 | 1001.2 | |
| 20260506184722 | 0 | 270 | 4.0 | 7.0 | 0.00 | 0.00 | 0.00 | 1000.9 | |
| 20260506183919 | 0 | 293 | 2.0 | 8.0 | 0.00 | 0.00 | 0.00 | 1000.8 | |
| 20260506183111 | 0 | 315 | 3.0 | 7.0 | 0.00 | 0.00 | 0.00 | 1000.9 | |
| 20260506182306 | 0 | 225 | 0.0 | 6.0 | 0.00 | 0.00 | 0.00 | 1000.9 | |
| 20260506181501 | 0 | 225 | 3.0 | 8.0 | 0.00 | 0.00 | 0.00 | 1000.8 | |
| 20260506180655 | 0 | 315 | 3.0 | 7.0 | 0.00 | 0.00 | 0.00 | 1000.7 | |
| 20260506175852 | 0 | 315 | 5.0 | 7.0 | 0.00 | 0.00 | 0.00 | 1000.5 | |
| 20260506175052 | 0 | 270 | 2.0 | 11.0 | 0.00 | 0.00 | 0.00 | 1000.4 | |
| 20260506174248 | 0 | 315 | 3.0 | 10.0 | 0.00 | 0.00 | 0.00 | 1000.3 | |
| 20260506173442 | 0 | 248 | 2.0 | 9.0 | 0.00 | 0.00 | 0.00 | 1000.2 | |
| 20260506172635 | 0 | 0 | 2.0 | 11.0 | 0.00 | 0.00 | 0.00 | 1000.2 | |
| 20260506171830 | 0 | 180 | 4.0 | 10.0 | 0.00 | 0.00 | 0.00 | 1000.1 | |
| 20260506171025 | 0 | 90 | 1.0 | 11.0 | 0.00 | 0.00 | 0.00 | 1000.1 | |
| 20260506170212 | 0 | 315 | 3.0 | 11.0 | 0.00 | 0.00 | 0.00 | 1000.2 | |
| 20260506165359 | 0 | 315 | 4.0 | 13.0 | 0.00 | 0.00 | 0.00 | 1000.1 | |
| 20260506164555 | 0 | 315 | 4.0 | 13.0 | 0.00 | 0.00 | 0.00 | 1000.2 | |
| 20260506163747 | 0 | 0 | 2.0 | 10.0 | 0.00 | 0.00 | 0.00 | 1000.3 | |
| 20260506162938 | 0 | 315 | 6.0 | 12.0 | 0.00 | 0.00 | 0.00 | 1000.2 | |
| 20260506162138 | 0 | 315 | 11.0 | 14.0 | 0.00 | 0.00 | 0.00 | 1000.2 | |
| 20260506161334 | 0 | 315 | 2.0 | 11.0 | 0.00 | 0.00 | 0.00 | 1000.2 | |
| 20260506160525 | 0 | 315 | 4.0 | 9.0 | 0.00 | 0.00 | 0.00 | 1000.3 | |
| 20260506155721 | 0 | 0 | 4.0 | 9.0 | 0.00 | 0.00 | 0.00 | 1000.2 | |
| 20260506154916 | 0 | 293 | 3.0 | 10.0 | 0.00 | 0.00 | 0.00 | 1000.4 | |
| 20260506154109 | 0 | 225 | 2.0 | 16.0 | 0.00 | 0.00 | 0.00 | 1000.6 | |
| 20260506153304 | 0 | 293 | 11.0 | 14.0 | 0.00 | 0.00 | 0.00 | 1000.7 | |
| 20260506152501 | 0 | 315 | 4.0 | 9.0 | 0.00 | 0.00 | 0.00 | 1000.6 | |
| 20260506151655 | 0 | 135 | 2.0 | 9.0 | 0.00 | 0.00 | 0.00 | 1000.9 | |
| 20260506150849 | 0 | 225 | 4.0 | 6.0 | 0.00 | 0.00 | 0.00 | 1001.5 | |
| 20260506150041 | 0 | 270 | 4.0 | 7.0 | 0.00 | 0.00 | 0.00 | 1001.7 | |
| 20260506145237 | 0 | 315 | 1.0 | 5.0 | 0.00 | 0.00 | 0.00 | 1001.8 | |
| 20260506144434 | 0 | 270 | 2.0 | 8.0 | 0.00 | 0.00 | 0.00 | 1001.8 | |
| 20260506143630 | 0 | 315 | 1.0 | 6.0 | 0.00 | 0.00 | 0.00 | 1001.8 | |
| 20260506142828 | 0 | 270 | 3.0 | 6.0 | 0.00 | 0.00 | 0.00 | 1001.9 | |
| 20260506142027 | 0 | 90 | 1.0 | 9.0 | 0.00 | 0.00 | 0.00 | 1001.9 | |
| 20260506141224 | 0 | 225 | 2.0 | 10.0 | 0.00 | 0.00 | 0.00 | 1001.8 | |
| 20260506140411 | 0 | 315 | 4.0 | 9.0 | 0.00 | 0.00 | 0.00 | 1002.0 | |
| 20260506135558 | 0 | 315 | 3.0 | 8.0 | 0.00 | 0.00 | 0.00 | 1002.0 | |
| 20260506134750 | 0 | 315 | 5.0 | 12.0 | 0.00 | 0.00 | 0.00 | 1002.0 | |
| 20260506133946 | 0 | 293 | 7.0 | 10.0 | 0.00 | 0.00 | 0.00 | 1002.2 | |
| 20260506133142 | 0 | 293 | 5.0 | 13.0 | 0.00 | 0.00 | 0.00 | 1002.1 | |
| 20260506132337 | 0 | 270 | 4.0 | 14.0 | 0.00 | 0.00 | 0.00 | 1002.2 | |
| 20260506131533 | 0 | 270 | 11.0 | 12.0 | 0.00 | 0.00 | 0.00 | 1002.5 | |
| 20260506130720 | 0 | 135 | 3.0 | 11.0 | 0.00 | 0.00 | 0.00 | 1002.6 | |
| 20260506125907 | 0 | 270 | 5.0 | 11.0 | 0.00 | 0.00 | 0.00 | 1002.8 | |
| 20260506125054 | 0 | 0 | 4.0 | 11.0 | 0.00 | 0.00 | 0.00 | 1002.7 | |
| 20260506124250 | 0 | 270 | 4.0 | 11.0 | 0.00 | 0.00 | 0.00 | 1002.7 | |
| 20260506123446 | 0 | 180 | 5.0 | 11.0 | 0.00 | 0.00 | 0.00 | 1002.6 | |
| 20260506122641 | 0 | 270 | 5.0 | 12.0 | 0.00 | 0.00 | 0.00 | 1003.0 | |
| 20260506121832 | 0 | 180 | 3.0 | 9.0 | 0.00 | 0.00 | 0.00 | 1003.1 | |
| 20260506121025 | 0 | 338 | 2.0 | 6.0 | 0.00 | 0.00 | 0.00 | 1003.0 | |
| 20260506120222 | 0 | 315 | 2.0 | 8.0 | 0.00 | 0.00 | 0.00 | 1003.1 | |
| 20260506115419 | 0 | 315 | 7.0 | 12.0 | 0.00 | 0.00 | 0.00 | 1003.1 | |
| 20260506114543 | 0 | 315 | 5.0 | 7.0 | 0.00 | 0.00 | 0.00 | 1003.0 | |
| 20260506113740 | 0 | 293 | 4.0 | 8.0 | 0.00 | 0.00 | 0.00 | 1003.1 | |
| 20260506112933 | 0 | 270 | 1.0 | 6.0 | 0.00 | 0.00 | 0.00 | 1003.3 | |
| 20260506112129 | 0 | 315 | 2.0 | 7.0 | 0.00 | 0.00 | 0.00 | 1003.3 | |
| 20260506111328 | 0 | 248 | 4.0 | 10.0 | 0.00 | 0.00 | 0.00 | 1003.4 | |
| 20260506110520 | 0 | 135 | 6.0 | 11.0 | 0.00 | 0.00 | 0.00 | 1003.7 | |
| 20260506105715 | 0 | 225 | 2.0 | 8.0 | 0.00 | 0.00 | 0.00 | 1003.7 | |
| 20260506104911 | 0 | 315 | 3.0 | 7.0 | 0.00 | 0.00 | 0.00 | 1003.8 | |
| 20260506104106 | 0 | 270 | 5.0 | 7.0 | 0.00 | 0.00 | 0.00 | 1003.8 | |
| 20260506103302 | 0 | 270 | 6.0 | 9.0 | 0.00 | 0.00 | 0.00 | 1003.9 | |
| 20260506102500 | 0 | 270 | 4.0 | 10.0 | 0.00 | 0.00 | 0.00 | 1003.8 | |
| 20260506101657 | 0 | 225 | 1.0 | 9.0 | 0.00 | 0.00 | 0.00 | 1003.8 | |
| 20260506100854 | 0 | 270 | 3.0 | 8.0 | 0.00 | 0.00 | 0.00 | 1004.0 | |
| 20260506100053 | 0 | 315 | 4.0 | 9.0 | 0.00 | 0.00 | 0.00 | 1003.8 | |
| 20260506095247 | 0 | 0 | 4.0 | 8.0 | 0.00 | 0.00 | 0.00 | 1003.9 | |
| 20260506094443 | 0 | 135 | 3.0 | 11.0 | 0.00 | 0.00 | 0.00 | 1004.1 | |
| 20260506093639 | 0 | 315 | 4.0 | 7.0 | 0.00 | 0.00 | 0.00 | 1004.1 | |
| 20260506092835 | 0 | 225 | 2.0 | 8.0 | 0.00 | 0.00 | 0.00 | 1004.2 | |
| 20260506092033 | 0 | 225 | 5.0 | 9.0 | 0.00 | 0.00 | 0.00 | 1004.3 | |
| 20260506091230 | 0 | 315 | 6.0 | 10.0 | 0.00 | 0.00 | 0.00 | 1004.2 | |
| 20260506090427 | 0 | 315 | 1.0 | 5.0 | 0.00 | 0.00 | 0.00 | 1004.1 | |
| 20260506085627 | 0 | 315 | 2.0 | 9.0 | 0.00 | 0.00 | 0.00 | 1004.4 | |
| 20260506084822 | 0 | 270 | 3.0 | 11.0 | 0.00 | 0.00 | 0.00 | 1004.3 | |
| 20260506084016 | 0 | 315 | 3.0 | 8.0 | 0.00 | 0.00 | 0.00 | 1004.5 | |
| 20260506083212 | 0 | 270 | 2.0 | 8.0 | 0.00 | 0.00 | 0.00 | 1004.7 | |
| 20260506082406 | 0 | 315 | 4.0 | 9.0 | 0.00 | 0.00 | 0.00 | 1004.7 | |
| 20260506081601 | 0 | 270 | 2.0 | 11.0 | 0.00 | 0.00 | 0.00 | 1004.4 | |
| 20260506080759 | 0 | 270 | 3.0 | 10.0 | 0.00 | 0.00 | 0.00 | 1004.0 | |
| 20260506072743 | 0 | 315 | 4.0 | 8.0 | 0.00 | 0.00 | 0.00 | 1004.2 | |
| 20260506071938 | 0 | 293 | 5.0 | 8.0 | 0.00 | 0.00 | 0.00 | 1004.0 | |
| 20260506071131 | 0 | 270 | 4.0 | 8.0 | 0.00 | 0.00 | 0.00 | 1004.5 | |
| 20260506070327 | 0 | 315 | 4.0 | 13.0 | 0.00 | 0.00 | 0.00 | 1004.7 | |
| 20260506062312 | 0 | 225 | 3.0 | 6.0 | 0.00 | 0.00 | 0.00 | 1005.2 | |
| 20260506061507 | 0 | 90 | 1.0 | 6.0 | 0.00 | 0.00 | 0.00 | 1005.4 | |
| 20260506060703 | 0 | 315 | 1.0 | 7.0 | 0.00 | 0.00 | 0.00 | 1005.4 | |
| 20260506051020 | 0 | 270 | 1.0 | 4.0 | 0.00 | 0.00 | 0.00 | 1005.2 | |
| 20260506050213 | 0 | 225 | 0.0 | 1.0 | 0.00 | 0.00 | 0.00 | 1005.4 | |
| 20260506044604 | 0 | 270 | 1.0 | 1.0 | 0.00 | 0.00 | 0.00 | 1005.5 | |
| 20260506043802 | 0 | 270 | 1.0 | 1.0 | 0.00 | 0.00 | 0.00 | 1005.7 | |
| 20260506042958 | 0 | 90 | 0.0 | 0.0 | 0.00 | 0.00 | 0.00 | 1005.8 | |
| 20260506042155 | 0 | 90 | 0.0 | 1.0 | 0.00 | 0.00 | 0.00 | 1005.8 | |
| 20260506041349 | 0 | 90 | 0.0 | 1.0 | 0.00 | 0.00 | 0.00 | 1005.7 | |
| 20260506040545 | 0 | 90 | 0.0 | 1.0 | 0.00 | 0.00 | 0.00 | 1005.6 | |
| 20260506035740 | 0 | 90 | 0.0 | 0.0 | 0.00 | 0.00 | 0.00 | 1005.5 | |
| 20260506034936 | 0 | 90 | 0.0 | 1.0 | 0.00 | 0.00 | 0.00 | 1005.4 | |
| 20260506034131 | 0 | 90 | 0.0 | 2.0 | 0.00 | 0.00 | 0.00 | 1005.5 | |
| 20260506033323 | 0 | 90 | 0.0 | 2.0 | 0.00 | 0.00 | 0.00 | 1005.5 | |
| 20260506032519 | 0 | 90 | 0.0 | 2.0 | 0.00 | 0.00 | 0.00 | 1005.5 | |
| 20260506031716 | 0 | 90 | 1.0 | 1.0 | 0.00 | 0.00 | 0.00 | 1005.4 | |
| 20260506030915 | 0 | 90 | 1.0 | 1.0 | 0.00 | 0.00 | 0.00 | 1005.3 | |
| 20260506030109 | 0 | 90 | 0.0 | 1.0 | 0.00 | 0.00 | 0.00 | 1005.3 | |
| 20260506025305 | 0 | 45 | 1.0 | 1.0 | 0.00 | 0.00 | 0.00 | 1005.2 | |
| 20260506024500 | 0 | 90 | 0.0 | 1.0 | 0.00 | 0.00 | 0.00 | 1005.1 | |
| 20260506023657 | 0 | 90 | 0.0 | 1.0 | 0.00 | 0.00 | 0.00 | 1004.9 | |
| 20260506022853 | 0 | 90 | 1.0 | 2.0 | 0.00 | 0.00 | 0.00 | 1004.8 | |
| 20260506022052 | 0 | 90 | 0.0 | 1.0 | 0.00 | 0.00 | 0.00 | 1004.8 | |
| 20260506021250 | 0 | 135 | 0.0 | 0.0 | 0.00 | 0.00 | 0.00 | 1004.6 | |
| 20260506020447 | 0 | 90 | 0.0 | 0.0 | 0.00 | 0.00 | 0.00 | 1004.5 | |
| 20260506015642 | 0 | 90 | 0.0 | 0.0 | 0.00 | 0.00 | 0.00 | 1004.4 | |
| 20260506014838 | 0 | 180 | 0.0 | 2.0 | 0.00 | 0.00 | 0.00 | 1004.2 | |
| 20260506014033 | 0 | 90 | 0.0 | 1.0 | 0.00 | 0.00 | 0.00 | 1003.8 | |
| 20260506013229 | 0 | 135 | 0.0 | 1.0 | 0.00 | 0.00 | 0.00 | 1003.9 | |
| 20260506012428 | 0 | 270 | 0.0 | 2.0 | 0.00 | 0.00 | 0.00 | 1003.9 |